TimeCDT,TemperatureF,Dew PointF,Humidity,Sea Level PressureIn,VisibilityMPH,Wind Direction,Wind SpeedMPH,Gust SpeedMPH,PrecipitationIn,Events,Conditions,WindDirDegrees,DateUTC
12:17 AM,71.6,68.0,88,29.96,10.0,SE,15.0,23.0,N/A,,Mostly Cloudy,140,2013-04-09 05:17:00
12:53 AM,72.0,68.0,87,29.96,10.0,SE,12.7,-,N/A,,Mostly Cloudy,140,2013-04-09 05:53:00
1:53 AM,73.0,68.0,84,29.94,9.0,SE,13.8,19.6,N/A,,Overcast,140,2013-04-09 06:53:00
2:53 AM,73.0,68.0,84,29.92,10.0,SSE,16.1,-,N/A,,Overcast,150,2013-04-09 07:53:00
3:53 AM,73.0,68.0,84,29.93,9.0,SSE,13.8,-,N/A,,Overcast,150,2013-04-09 08:53:00
4:53 AM,72.0,68.0,87,29.94,9.0,SSE,15.0,-,N/A,,Overcast,150,2013-04-09 09:53:00
5:53 AM,73.0,68.0,84,29.95,9.0,SSE,12.7,21.9,0.00,,Overcast,150,2013-04-09 10:53:00
6:29 AM,73.4,68.0,83,29.95,10.0,SSE,15.0,-,N/A,,Overcast,150,2013-04-09 11:29:00
6:53 AM,73.0,69.1,87,29.96,10.0,SSE,12.7,-,N/A,,Overcast,150,2013-04-09 11:53:00
7:53 AM,73.0,69.1,87,29.98,8.0,SSE,11.5,21.9,N/A,,Overcast,150,2013-04-09 12:53:00
8:53 AM,73.9,69.1,85,30.00,8.0,SSE,16.1,24.2,N/A,,Overcast,150,2013-04-09 13:53:00
9:53 AM,75.0,70.0,84,30.01,9.0,SSE,15.0,23.0,N/A,,Overcast,150,2013-04-09 14:53:00
10:26 AM,77.0,69.8,78,30.00,10.0,SSE,15.0,20.7,N/A,,Overcast,150,2013-04-09 15:26:00
10:53 AM,78.1,70.0,76,30.02,10.0,South,15.0,23.0,N/A,,Overcast,180,2013-04-09 15:53:00
11:53 AM,80.1,72.0,76,30.03,10.0,SSE,13.8,21.9,N/A,,Overcast,160,2013-04-09 16:53:00
12:53 PM,80.1,71.1,74,30.02,10.0,SSE,20.7,27.6,N/A,,Mostly Cloudy,160,2013-04-09 17:53:00
1:53 PM,80.1,72.0,76,30.00,10.0,South,16.1,24.2,N/A,,Mostly Cloudy,180,2013-04-09 18:53:00
2:53 PM,81.0,72.0,74,29.99,10.0,South,16.1,23.0,N/A,,Mostly Cloudy,180,2013-04-09 19:53:00
3:42 PM,80.6,71.6,74,29.98,10.0,South,16.1,24.2,N/A,,Mostly Cloudy,180,2013-04-09 20:42:00
3:53 PM,80.1,71.1,74,29.99,10.0,South,17.3,25.3,N/A,,Mostly Cloudy,170,2013-04-09 20:53:00
4:19 PM,78.8,71.6,78,29.96,10.0,SSE,13.8,-,N/A,,Mostly Cloudy,150,2013-04-09 21:19:00
4:53 PM,79.0,70.0,74,29.97,10.0,SSE,16.1,23.0,N/A,,Mostly Cloudy,160,2013-04-09 21:53:00
5:53 PM,79.0,71.1,77,29.99,10.0,SSE,17.3,23.0,0.00,,Mostly Cloudy,150,2013-04-09 22:53:00
6:33 PM,78.8,69.8,74,29.98,10.0,SSE,11.5,20.7,N/A,,Mostly Cloudy,150,2013-04-09 23:33:00
6:53 PM,77.0,70.0,79,29.99,10.0,SSE,15.0,-,N/A,,Mostly Cloudy,150,2013-04-09 23:53:00
7:53 PM,75.9,70.0,82,29.99,10.0,ESE,11.5,17.3,N/A,,Mostly Cloudy,120,2013-04-10 00:53:00
8:53 PM,75.0,70.0,84,30.00,9.0,ESE,11.5,-,N/A,,Mostly Cloudy,120,2013-04-10 01:53:00
9:53 PM,75.0,70.0,84,30.01,10.0,SE,13.8,-,N/A,,Overcast,130,2013-04-10 02:53:00
10:53 PM,75.0,70.0,84,30.00,10.0,SE,13.8,20.7,N/A,,Overcast,140,2013-04-10 03:53:00
11:53 PM,73.9,69.1,85,29.99,10.0,SE,17.3,28.8,N/A,,Overcast,140,2013-04-10 04:53:00